Time,TemperatureF,DewpointF,PressureIn,WindDirection,WindDirectionDegrees,WindSpeedMPH,WindSpeedGustMPH,Humidity,HourlyPrecipIn,Conditions,Clouds,dailyrainin,SoftwareType,DateUTC
2013-01-09 00:05:00,33.8,27.0,30.38,WSW,245,1.0,1.0,76,0.00,,,0.00,Wunderground v.1.13,2013-01-09 05:05:00,
2013-01-09 00:10:00,33.8,27.0,30.38,WSW,245,1.0,1.0,76,0.00,,,0.00,Wunderground v.1.13,2013-01-09 05:10:00,
2013-01-09 00:14:00,33.8,27.0,30.38,WSW,246,0.0,12.0,76,0.00,,,0.00,Wunderground v.1.13,2013-01-09 05:14:00,
2013-01-09 00:20:00,33.8,27.0,30.37,WSW,246,0.0,12.0,76,0.00,,,0.00,Wunderground v.1.13,2013-01-09 05:20:00,
2013-01-09 00:25:00,33.8,27.0,30.37,WSW,245,0.0,12.0,76,0.00,,,0.00,Wunderground v.1.13,2013-01-09 05:25:00,
2013-01-09 00:30:00,33.8,27.0,30.37,WSW,246,0.0,12.0,76,0.00,,,0.00,Wunderground v.1.13,2013-01-09 05:30:00,
2013-01-09 00:39:00,33.6,26.8,30.37,WSW,245,0.0,12.0,76,0.00,,,0.00,Wunderground v.1.13,2013-01-09 05:39:00,
2013-01-09 00:45:00,33.5,26.7,30.37,WSW,246,0.0,12.0,76,0.00,,,0.00,Wunderground v.1.13,2013-01-09 05:45:00,
2013-01-09 00:50:00,33.3,26.5,30.37,WSW,246,0.0,12.0,76,0.00,,,0.00,Wunderground v.1.13,2013-01-09 05:50:00,
2013-01-09 00:55:00,33.1,26.4,30.38,WSW,246,0.0,12.0,76,0.00,,,0.00,Wunderground v.1.13,2013-01-09 05:55:00,
2013-01-09 01:05:00,32.7,26.0,30.37,N/A,-737280,0.0,0.0,76,0.00,,,0.00,Wunderground v.1.13,2013-01-09 06:05:00,
2013-01-09 01:15:00,32.1,25.7,30.38,WSW,246,0.0,0.0,77,0.00,,,0.00,Wunderground v.1.13,2013-01-09 06:15:00,
2013-01-09 01:20:00,31.9,27.3,30.38,WSW,246,0.0,0.0,83,0.00,,,0.00,Wunderground v.1.13,2013-01-09 06:20:00,
2013-01-09 01:25:00,31.8,25.7,30.37,WSW,246,0.0,0.0,78,0.00,,,0.00,Wunderground v.1.13,2013-01-09 06:25:00,
2013-01-09 01:30:00,31.6,25.5,30.38,WSW,246,0.0,0.0,78,0.00,,,0.00,Wunderground v.1.13,2013-01-09 06:30:00,
2013-01-09 01:40:00,31.4,25.6,30.38,WSW,246,0.0,0.0,79,0.00,,,0.00,Wunderground v.1.13,2013-01-09 06:40:00,
2013-01-09 01:50:00,31.2,25.7,30.38,WSW,246,0.0,0.0,80,0.00,,,0.00,Wunderground v.1.13,2013-01-09 06:50:00,
2013-01-09 01:55:00,31.1,25.7,30.38,WSW,246,0.0,0.0,80,0.00,,,0.00,Wunderground v.1.13,2013-01-09 06:55:00,
2013-01-09 02:00:00,31.0,25.6,30.38,WSW,246,0.0,0.0,80,0.00,,,0.00,Wunderground v.1.13,2013-01-09 07:00:00,
2013-01-09 02:05:00,31.0,25.6,30.38,WSW,246,0.0,0.0,80,0.00,,,0.00,Wunderground v.1.13,2013-01-09 07:05:00,
2013-01-09 02:15:00,30.7,25.3,30.37,WSW,246,0.0,0.0,80,0.00,,,0.00,Wunderground v.1.13,2013-01-09 07:15:00,
2013-01-09 02:20:00,30.6,25.2,30.37,WSW,246,0.0,0.0,80,0.00,,,0.00,Wunderground v.1.13,2013-01-09 07:20:00,
2013-01-09 02:25:00,30.5,25.1,30.38,WSW,246,0.0,0.0,80,0.00,,,0.00,Wunderground v.1.13,2013-01-09 07:25:00,
2013-01-09 02:35:00,30.2,24.8,30.38,WSW,246,0.0,0.0,80,0.00,,,0.00,Wunderground v.1.13,2013-01-09 07:35:00,
2013-01-09 02:40:00,30.1,24.7,30.38,WSW,245,0.0,0.0,80,0.00,,,0.00,Wunderground v.1.13,2013-01-09 07:40:00,
2013-01-09 02:45:00,29.9,24.8,30.38,WSW,245,0.0,0.0,81,0.00,,,0.00,Wunderground v.1.13,2013-01-09 07:45:00,
2013-01-09 02:55:00,29.7,24.6,30.38,WSW,246,0.0,0.0,81,0.00,,,0.00,Wunderground v.1.13,2013-01-09 07:55:00,
2013-01-09 03:00:00,29.6,24.5,30.38,WSW,246,0.0,0.0,81,0.00,,,0.00,Wunderground v.1.13,2013-01-09 08:00:00,
2013-01-09 03:05:00,29.4,24.3,30.38,WSW,245,0.0,0.0,81,0.00,,,0.00,Wunderground v.1.13,2013-01-09 08:05:00,
2013-01-09 03:10:00,29.2,24.1,30.38,WSW,246,0.0,0.0,81,0.00,,,0.00,Wunderground v.1.13,2013-01-09 08:10:00,
2013-01-09 03:20:00,28.9,23.8,30.38,WSW,245,0.0,0.0,81,0.00,,,0.00,Wunderground v.1.13,2013-01-09 08:20:00,
2013-01-09 03:25:00,28.7,23.6,30.38,WSW,245,0.0,0.0,81,0.00,,,0.00,Wunderground v.1.13,2013-01-09 08:25:00,
2013-01-09 03:30:00,28.6,23.5,30.38,WSW,246,0.0,0.0,81,0.00,,,0.00,Wunderground v.1.13,2013-01-09 08:30:00,
2013-01-09 03:35:00,28.5,23.7,30.38,N/A,-737280,0.0,0.0,82,0.00,,,0.00,Wunderground v.1.13,2013-01-09 08:35:00,
2013-01-09 03:40:00,28.3,23.5,30.37,N/A,-737280,0.0,0.0,82,0.00,,,0.00,Wunderground v.1.13,2013-01-09 08:40:00,
2013-01-09 03:45:00,28.1,23.3,30.38,N/A,-737280,0.0,0.0,82,0.00,,,0.00,Wunderground v.1.13,2013-01-09 08:45:00,
2013-01-09 03:50:00,27.9,23.1,30.38,N/A,-737280,0.0,0.0,82,0.00,,,0.00,Wunderground v.1.13,2013-01-09 08:50:00,
2013-01-09 03:55:00,27.8,23.3,30.37,N/A,-737280,0.0,0.0,83,0.00,,,0.00,Wunderground v.1.13,2013-01-09 08:55:00,
2013-01-09 04:00:00,27.6,23.1,30.37,N/A,-737280,0.0,0.0,83,0.00,,,0.00,Wunderground v.1.13,2013-01-09 09:00:00,
2013-01-09 04:05:00,27.5,23.0,30.38,N/A,-737280,0.0,0.0,83,0.00,,,0.00,Wunderground v.1.13,2013-01-09 09:05:00,
2013-01-09 04:10:00,27.4,22.9,30.38,N/A,-737280,0.0,0.0,83,0.00,,,0.00,Wunderground v.1.13,2013-01-09 09:10:00,
2013-01-09 04:15:00,27.2,22.7,30.39,N/A,-737280,0.0,0.0,83,0.00,,,0.00,Wunderground v.1.13,2013-01-09 09:15:00,
2013-01-09 04:20:00,27.0,22.5,30.37,N/A,-737280,0.0,0.0,83,0.00,,,0.00,Wunderground v.1.13,2013-01-09 09:20:00,
2013-01-09 04:25:00,26.9,22.4,30.37,N/A,-737280,0.0,0.0,83,0.00,,,0.00,Wunderground v.1.13,2013-01-09 09:25:00,
2013-01-09 04:30:00,26.7,22.2,30.37,N/A,-737280,0.0,0.0,83,0.00,,,0.00,Wunderground v.1.13,2013-01-09 09:30:00,
2013-01-09 04:35:00,26.6,22.1,30.37,N/A,-737280,0.0,0.0,83,0.00,,,0.00,Wunderground v.1.13,2013-01-09 09:35:00,
2013-01-09 04:40:00,26.5,22.3,30.38,N/A,-737280,0.0,0.0,84,0.00,,,0.00,Wunderground v.1.13,2013-01-09 09:40:00,
2013-01-09 04:45:00,26.4,22.2,30.37,N/A,-737280,0.0,0.0,84,0.00,,,0.00,Wunderground v.1.13,2013-01-09 09:45:00,
2013-01-09 04:50:00,26.3,22.1,30.37,N/A,-737280,0.0,0.0,84,0.00,,,0.00,Wunderground v.1.13,2013-01-09 09:50:00,
2013-01-09 04:55:00,26.2,22.3,30.38,N/A,-737280,0.0,0.0,85,0.00,,,0.00,Wunderground v.1.13,2013-01-09 09:55:00,
2013-01-09 05:00:00,26.1,22.2,30.38,N/A,-737280,0.0,0.0,85,0.00,,,0.00,Wunderground v.1.13,2013-01-09 10:00:00,
2013-01-09 05:05:00,26.0,22.1,30.38,N/A,-737280,0.0,0.0,85,0.00,,,0.00,Wunderground v.1.13,2013-01-09 10:05:00,
2013-01-09 05:10:00,26.0,22.1,30.38,N/A,-737280,0.0,0.0,85,0.00,,,0.00,Wunderground v.1.13,2013-01-09 10:10:00,
2013-01-09 05:15:00,25.9,22.0,30.38,N/A,-737280,0.0,0.0,85,0.00,,,0.00,Wunderground v.1.13,2013-01-09 10:15:00,
2013-01-09 05:20:00,25.8,21.9,30.38,N/A,-737280,0.0,0.0,85,0.00,,,0.00,Wunderground v.1.13,2013-01-09 10:20:00,
2013-01-09 05:25:00,25.7,22.1,30.37,N/A,-737280,0.0,0.0,86,0.00,,,0.00,Wunderground v.1.13,2013-01-09 10:25:00,
2013-01-09 05:30:00,25.7,22.1,30.38,N/A,-737280,0.0,0.0,86,0.00,,,0.00,Wunderground v.1.13,2013-01-09 10:30:00,
2013-01-09 05:35:00,25.6,22.0,30.38,N/A,-737280,0.0,0.0,86,0.00,,,0.00,Wunderground v.1.13,2013-01-09 10:35:00,
2013-01-09 05:40:00,25.4,21.8,30.38,N/A,-737280,0.0,0.0,86,0.00,,,0.00,Wunderground v.1.13,2013-01-09 10:40:00,
2013-01-09 05:45:00,25.2,21.6,30.38,N/A,-737280,0.0,0.0,86,0.00,,,0.00,Wunderground v.1.13,2013-01-09 10:45:00,
2013-01-09 05:50:00,25.1,21.5,30.38,N/A,-737280,0.0,0.0,86,0.00,,,0.00,Wunderground v.1.13,2013-01-09 10:50:00,
2013-01-09 05:55:00,24.9,21.3,30.38,N/A,-737280,0.0,0.0,86,0.00,,,0.00,Wunderground v.1.13,2013-01-09 10:55:00,
2013-01-09 06:00:00,24.8,21.2,30.38,N/A,-737280,0.0,0.0,86,0.00,,,0.00,Wunderground v.1.13,2013-01-09 11:00:00,
2013-01-09 06:05:00,24.6,21.0,30.38,N/A,-737280,0.0,0.0,86,0.00,,,0.00,Wunderground v.1.13,2013-01-09 11:05:00,
2013-01-09 06:10:00,24.5,20.9,30.38,N/A,-737280,0.0,0.0,86,0.00,,,0.00,Wunderground v.1.13,2013-01-09 11:10:00,
2013-01-09 06:15:00,24.4,20.8,30.38,N/A,-737280,0.0,0.0,86,0.00,,,0.00,Wunderground v.1.13,2013-01-09 11:15:00,
2013-01-09 06:20:00,24.2,20.6,30.39,N/A,-737280,0.0,0.0,86,0.00,,,0.00,Wunderground v.1.13,2013-01-09 11:20:00,
2013-01-09 06:25:00,24.1,20.5,30.39,N/A,-737280,0.0,0.0,86,0.00,,,0.00,Wunderground v.1.13,2013-01-09 11:25:00,
2013-01-09 06:30:00,24.0,20.4,30.39,N/A,-737280,0.0,0.0,86,0.00,,,0.00,Wunderground v.1.13,2013-01-09 11:30:00,
2013-01-09 06:35:00,23.8,20.2,30.40,N/A,-737280,0.0,0.0,86,0.00,,,0.00,Wunderground v.1.13,2013-01-09 11:35:00,
2013-01-09 06:40:00,23.7,20.1,30.40,N/A,-737280,0.0,0.0,86,0.00,,,0.00,Wunderground v.1.13,2013-01-09 11:40:00,
2013-01-09 06:45:00,23.5,19.9,30.40,N/A,-737280,0.0,0.0,86,0.00,,,0.00,Wunderground v.1.13,2013-01-09 11:45:00,
2013-01-09 06:50:00,23.3,19.7,30.40,N/A,-737280,0.0,0.0,86,0.00,,,0.00,Wunderground v.1.13,2013-01-09 11:50:00,
2013-01-09 06:55:00,23.1,19.8,30.40,N/A,-737280,0.0,0.0,87,0.00,,,0.00,Wunderground v.1.13,2013-01-09 11:55:00,
2013-01-09 07:00:00,23.0,19.7,30.41,N/A,-737280,0.0,0.0,87,0.00,,,0.00,Wunderground v.1.13,2013-01-09 12:00:00,
2013-01-09 07:05:00,22.9,19.6,30.40,N/A,-737280,0.0,0.0,87,0.00,,,0.00,Wunderground v.1.13,2013-01-09 12:05:00,
2013-01-09 07:10:00,22.8,19.5,30.40,N/A,-737280,0.0,0.0,87,0.00,,,0.00,Wunderground v.1.13,2013-01-09 12:10:00,
2013-01-09 07:15:00,22.7,19.4,30.40,N/A,-737280,0.0,0.0,87,0.00,,,0.00,Wunderground v.1.13,2013-01-09 12:15:00,
2013-01-09 07:20:00,22.6,19.3,30.40,N/A,-737280,0.0,0.0,87,0.00,,,0.00,Wunderground v.1.13,2013-01-09 12:20:00,
2013-01-09 07:25:00,22.5,19.5,30.40,N/A,-737280,0.0,0.0,88,0.00,,,0.00,Wunderground v.1.13,2013-01-09 12:25:00,
2013-01-09 07:30:00,22.5,19.5,30.40,N/A,-737280,0.0,0.0,88,0.00,,,0.00,Wunderground v.1.13,2013-01-09 12:30:00,
2013-01-09 07:35:00,22.4,19.4,30.40,N/A,-737280,0.0,0.0,88,0.00,,,0.00,Wunderground v.1.13,2013-01-09 12:35:00,
2013-01-09 07:40:00,22.4,19.4,30.40,N/A,-737280,0.0,0.0,88,0.00,,,0.00,Wunderground v.1.13,2013-01-09 12:40:00,
2013-01-09 07:45:00,22.3,19.3,30.40,N/A,-737280,0.0,0.0,88,0.00,,,0.00,Wunderground v.1.13,2013-01-09 12:45:00,
2013-01-09 07:50:00,22.3,19.3,30.40,N/A,-737280,0.0,0.0,88,0.00,,,0.00,Wunderground v.1.13,2013-01-09 12:50:00,
2013-01-09 07:55:00,22.3,19.6,30.40,N/A,-737280,0.0,0.0,89,0.00,,,0.00,Wunderground v.1.13,2013-01-09 12:55:00,
2013-01-09 08:00:00,22.4,19.6,30.39,N/A,-737280,0.0,0.0,89,0.00,,,0.00,Wunderground v.1.13,2013-01-09 13:00:00,
2013-01-09 08:05:00,22.4,19.6,30.39,N/A,-737280,0.0,0.0,89,0.00,,,0.00,Wunderground v.1.13,2013-01-09 13:05:00,
2013-01-09 08:10:00,22.5,19.7,30.39,N/A,-737280,0.0,0.0,89,0.00,,,0.00,Wunderground v.1.13,2013-01-09 13:10:00,
2013-01-09 08:15:00,22.5,19.7,30.39,N/A,-737280,0.0,0.0,89,0.00,,,0.00,Wunderground v.1.13,2013-01-09 13:15:00,
2013-01-09 08:20:00,22.6,19.8,30.39,N/A,-737280,0.0,0.0,89,0.00,,,0.00,Wunderground v.1.13,2013-01-09 13:20:00,
2013-01-09 08:25:00,22.8,20.3,30.39,N/A,-737280,0.0,0.0,90,0.00,,,0.00,Wunderground v.1.13,2013-01-09 13:25:00,
2013-01-09 08:30:00,22.9,20.4,30.39,N/A,-737280,0.0,0.0,90,0.00,,,0.00,Wunderground v.1.13,2013-01-09 13:30:00,
2013-01-09 08:35:00,23.1,20.6,30.39,N/A,-737280,0.0,0.0,90,0.00,,,0.00,Wunderground v.1.13,2013-01-09 13:35:00,
2013-01-09 08:45:00,23.6,21.4,30.39,N/A,-737280,0.0,0.0,91,0.00,,,0.00,Wunderground v.1.13,2013-01-09 13:45:00,
2013-01-09 08:50:00,24.0,21.8,30.39,N/A,-737280,0.0,0.0,91,0.00,,,0.00,Wunderground v.1.13,2013-01-09 13:50:00,
2013-01-09 08:55:00,24.3,22.1,30.39,N/A,-737280,0.0,0.0,91,0.00,,,0.00,Wunderground v.1.13,2013-01-09 13:55:00,
2013-01-09 09:00:00,24.6,22.3,30.39,N/A,-737280,0.0,0.0,91,0.00,,,0.00,Wunderground v.1.13,2013-01-09 14:00:00,
2013-01-09 09:05:00,24.9,22.9,30.39,N/A,-737280,0.0,0.0,92,0.00,,,0.00,Wunderground v.1.13,2013-01-09 14:05:00,
2013-01-09 09:10:00,25.2,22.9,30.38,N/A,-737280,0.0,0.0,91,0.00,,,0.00,Wunderground v.1.13,2013-01-09 14:10:00,
2013-01-09 09:15:00,25.4,23.4,30.39,N/A,-737280,0.0,0.0,92,0.00,,,0.00,Wunderground v.1.13,2013-01-09 14:15:00,
2013-01-09 09:20:00,25.7,23.7,30.38,N/A,-737280,0.0,0.0,92,0.00,,,0.00,Wunderground v.1.13,2013-01-09 14:20:00,
2013-01-09 09:25:00,26.1,24.1,30.38,N/A,-737280,0.0,0.0,92,0.00,,,0.00,Wunderground v.1.13,2013-01-09 14:25:00,
2013-01-09 09:30:00,26.5,24.5,30.38,N/A,-737280,0.0,0.0,92,0.00,,,0.00,Wunderground v.1.13,2013-01-09 14:30:00,
2013-01-09 09:35:00,27.0,25.2,30.38,N/A,-737280,0.0,0.0,93,0.00,,,0.00,Wunderground v.1.13,2013-01-09 14:35:00,
2013-01-09 09:40:00,27.6,25.8,30.38,N/A,-737280,0.0,0.0,93,0.00,,,0.00,Wunderground v.1.13,2013-01-09 14:40:00,
2013-01-09 09:50:00,29.1,27.3,30.37,WSW,246,0.0,0.0,93,0.00,,,0.00,Wunderground v.1.13,2013-01-09 14:50:00,
2013-01-09 09:55:00,29.7,27.9,30.37,WSW,246,0.0,0.0,93,0.00,,,0.00,Wunderground v.1.13,2013-01-09 14:55:00,
2013-01-09 10:00:00,30.3,28.5,30.37,WSW,246,0.0,0.0,93,0.00,,,0.00,Wunderground v.1.13,2013-01-09 15:00:00,
2013-01-09 10:10:00,31.4,29.6,30.36,WSW,246,0.0,0.0,93,0.00,,,0.00,Wunderground v.1.13,2013-01-09 15:10:00,
2013-01-09 10:20:00,32.4,30.1,30.36,WSW,246,0.0,0.0,91,0.00,,,0.00,Wunderground v.1.13,2013-01-09 15:20:00,
2013-01-09 10:30:00,33.4,30.5,30.36,WSW,245,0.0,0.0,89,0.00,,,0.00,Wunderground v.1.13,2013-01-09 15:30:00,
2013-01-09 10:35:00,33.9,30.4,30.35,WSW,246,0.0,0.0,87,0.00,,,0.01,Wunderground v.1.13,2013-01-09 15:35:00,
2013-01-09 10:40:00,34.3,30.5,30.35,WSW,246,0.0,0.0,86,0.00,,,0.01,Wunderground v.1.13,2013-01-09 15:40:00,
2013-01-09 10:45:00,34.8,30.8,30.35,WSW,245,0.0,0.0,85,0.00,,,0.01,Wunderground v.1.13,2013-01-09 15:45:00,
2013-01-09 10:55:00,35.6,30.0,30.34,WSW,246,0.0,1.0,80,0.00,,,0.01,Wunderground v.1.13,2013-01-09 15:55:00,
2013-01-09 11:00:00,36.1,29.6,30.34,WSW,246,1.0,2.0,77,0.00,,,0.01,Wunderground v.1.13,2013-01-09 16:00:00,
2013-01-09 11:05:00,36.4,28.9,30.33,WSW,246,1.0,1.0,74,0.00,,,0.01,Wunderground v.1.13,2013-01-09 16:05:00,
2013-01-09 11:15:00,36.9,28.7,30.32,WSW,246,1.0,1.0,72,0.00,,,0.01,Wunderground v.1.13,2013-01-09 16:15:00,
2013-01-09 11:20:00,37.2,28.7,30.32,WSW,246,0.0,1.0,71,0.00,,,0.01,Wunderground v.1.13,2013-01-09 16:20:00,
2013-01-09 11:25:00,37.4,28.9,30.31,WSW,245,0.0,1.0,71,0.00,,,0.01,Wunderground v.1.13,2013-01-09 16:25:00,
2013-01-09 11:35:00,38.0,28.7,30.29,SSE,167,1.0,3.0,69,0.00,,,0.01,Wunderground v.1.13,2013-01-09 16:35:00,
2013-01-09 11:40:00,38.5,28.9,30.28,South,178,1.0,1.0,68,0.00,,,0.01,Wunderground v.1.13,2013-01-09 16:40:00,
2013-01-09 11:45:00,38.8,28.8,30.27,SSE,160,1.0,2.0,67,0.00,,,0.01,Wunderground v.1.13,2013-01-09 16:45:00,
2013-01-09 11:50:00,39.1,28.7,30.26,SE,146,1.0,3.0,66,0.00,,,0.01,Wunderground v.1.13,2013-01-09 16:50:00,
2013-01-09 12:00:00,39.3,28.9,30.24,SSE,159,2.0,2.0,66,0.00,,,0.01,Wunderground v.1.13,2013-01-09 17:00:00,
2013-01-09 12:05:00,39.4,29.0,30.24,SSW,202,2.0,4.0,66,0.00,,,0.01,Wunderground v.1.13,2013-01-09 17:05:00,
2013-01-09 12:10:00,39.4,29.0,30.23,SSW,207,1.0,1.0,66,0.00,,,0.01,Wunderground v.1.13,2013-01-09 17:10:00,
2013-01-09 12:20:00,39.5,29.1,30.22,SW,224,1.0,2.0,66,0.00,,,0.01,Wunderground v.1.13,2013-01-09 17:20:00,
2013-01-09 12:25:00,39.6,28.8,30.23,WSW,239,1.0,4.0,65,0.00,,,0.01,Wunderground v.1.13,2013-01-09 17:25:00,
2013-01-09 12:30:00,39.7,29.3,30.23,WSW,238,2.0,2.0,66,0.00,,,0.01,Wunderground v.1.13,2013-01-09 17:30:00,
2013-01-09 12:40:00,40.0,29.6,30.22,South,186,1.0,2.0,66,0.00,,,0.01,Wunderground v.1.13,2013-01-09 17:40:00,
2013-01-09 12:45:00,40.0,29.2,30.21,South,184,1.0,3.0,65,0.00,,,0.01,Wunderground v.1.13,2013-01-09 17:45:00,
2013-01-09 12:50:00,40.1,29.3,30.19,South,190,2.0,2.0,65,0.00,,,0.01,Wunderground v.1.13,2013-01-09 17:50:00,
2013-01-09 13:00:00,40.2,29.7,30.20,South,173,2.0,2.0,66,0.00,,,0.01,Wunderground v.1.13,2013-01-09 18:00:00,
2013-01-09 13:05:00,40.3,29.5,30.23,SW,234,1.0,1.0,65,0.00,,,0.01,Wunderground v.1.13,2013-01-09 18:05:00,
2013-01-09 13:10:00,40.5,29.7,30.23,SW,236,1.0,1.0,65,0.00,,,0.01,Wunderground v.1.13,2013-01-09 18:10:00,
2013-01-09 13:15:00,40.6,29.4,30.23,SW,236,2.0,4.0,64,0.00,,,0.01,Wunderground v.1.13,2013-01-09 18:15:00,
2013-01-09 13:25:00,41.0,30.1,30.24,WSW,244,5.0,5.0,65,0.00,,,0.01,Wunderground v.1.13,2013-01-09 18:25:00,
2013-01-09 13:30:00,41.1,29.8,30.24,SW,232,5.0,5.0,64,0.00,,,0.01,Wunderground v.1.13,2013-01-09 18:30:00,
2013-01-09 13:35:00,41.2,29.5,30.23,WSW,244,5.0,5.0,63,0.00,,,0.01,Wunderground v.1.13,2013-01-09 18:35:00,
2013-01-09 13:40:00,41.1,29.5,30.23,SW,227,6.0,6.0,63,0.00,,,0.01,Wunderground v.1.13,2013-01-09 18:40:00,
2013-01-09 13:45:00,41.0,29.4,30.22,SW,219,5.0,7.0,63,0.00,,,0.01,Wunderground v.1.13,2013-01-09 18:45:00,
2013-01-09 13:50:00,41.0,29.4,30.21,SSW,207,4.0,4.0,63,0.00,,,0.01,Wunderground v.1.13,2013-01-09 18:50:00,
2013-01-09 14:00:00,41.0,29.4,30.20,SW,219,4.0,5.0,63,0.00,,,0.01,Wunderground v.1.13,2013-01-09 19:00:00,
2013-01-09 14:05:00,40.9,29.7,30.19,South,187,4.0,4.0,64,0.00,,,0.01,Wunderground v.1.13,2013-01-09 19:05:00,
2013-01-09 14:10:00,40.9,29.7,30.19,SW,236,4.0,4.0,64,0.00,,,0.01,Wunderground v.1.13,2013-01-09 19:10:00,
2013-01-09 14:15:00,40.8,29.9,30.18,WSW,251,3.0,3.0,65,0.00,,,0.01,Wunderground v.1.13,2013-01-09 19:15:00,
2013-01-09 14:20:00,40.7,29.8,30.16,SSW,192,3.0,3.0,65,0.00,,,0.01,Wunderground v.1.13,2013-01-09 19:20:00,
2013-01-09 14:25:00,40.6,29.7,30.16,South,176,3.0,3.0,65,0.00,,,0.01,Wunderground v.1.13,2013-01-09 19:25:00,
2013-01-09 14:30:00,40.5,30.0,30.16,SW,219,2.0,2.0,66,0.00,,,0.01,Wunderground v.1.13,2013-01-09 19:30:00,
2013-01-09 14:40:00,40.3,29.8,30.16,South,177,2.0,2.0,66,0.00,,,0.01,Wunderground v.1.13,2013-01-09 19:40:00,
2013-01-09 14:45:00,40.3,29.8,30.16,South,184,2.0,3.0,66,0.00,,,0.01,Wunderground v.1.13,2013-01-09 19:45:00,
2013-01-09 14:50:00,40.3,29.8,30.16,SW,225,2.0,2.0,66,0.00,,,0.01,Wunderground v.1.13,2013-01-09 19:50:00,
2013-01-09 15:00:00,40.4,29.9,30.16,SSW,204,3.0,3.0,66,0.00,,,0.01,Wunderground v.1.13,2013-01-09 20:00:00,
2013-01-09 15:05:00,40.4,29.9,30.16,SSW,213,3.0,3.0,66,0.00,,,0.01,Wunderground v.1.13,2013-01-09 20:05:00,
2013-01-09 15:10:00,40.5,30.0,30.16,WSW,244,4.0,4.0,66,0.00,,,0.01,Wunderground v.1.13,2013-01-09 20:10:00,
2013-01-09 15:20:00,40.5,30.0,30.15,SW,225,3.0,3.0,66,0.00,,,0.01,Wunderground v.1.13,2013-01-09 20:20:00,
2013-01-09 15:25:00,40.6,30.1,30.15,SSW,196,4.0,5.0,66,0.00,,,0.01,Wunderground v.1.13,2013-01-09 20:25:00,
2013-01-09 15:30:00,40.6,30.1,30.14,South,171,5.0,5.0,66,0.00,,,0.01,Wunderground v.1.13,2013-01-09 20:30:00,
2013-01-09 15:40:00,40.6,30.1,30.12,South,170,4.0,10.0,66,0.00,,,0.01,Wunderground v.1.13,2013-01-09 20:40:00,
2013-01-09 15:45:00,40.6,30.1,30.10,South,188,5.0,5.0,66,0.00,,,0.01,Wunderground v.1.13,2013-01-09 20:45:00,
2013-01-09 15:50:00,40.6,30.5,30.07,South,169,5.0,9.0,67,0.00,,,0.01,Wunderground v.1.13,2013-01-09 20:50:00,
2013-01-09 16:00:00,40.4,31.4,30.06,SW,234,3.0,6.0,70,0.00,,,0.01,Wunderground v.1.13,2013-01-09 21:00:00,
2013-01-09 16:05:00,40.2,31.5,30.07,SSW,205,3.0,3.0,71,0.00,,,0.01,Wunderground v.1.13,2013-01-09 21:05:00,
2013-01-09 16:10:00,40.1,31.4,30.06,SW,223,3.0,3.0,71,0.00,,,0.02,Wunderground v.1.13,2013-01-09 21:10:00,
2013-01-09 16:15:00,40.1,31.8,30.05,SSW,209,3.0,3.0,72,0.00,,,0.02,Wunderground v.1.13,2013-01-09 21:15:00,
2013-01-09 16:25:00,39.9,31.6,30.09,West,259,2.0,3.0,72,0.00,,,0.02,Wunderground v.1.13,2013-01-09 21:25:00,
2013-01-09 16:30:00,39.8,31.5,30.09,WSW,237,2.0,8.0,72,0.00,,,0.02,Wunderground v.1.13,2013-01-09 21:30:00,
2013-01-09 16:35:00,39.8,31.8,30.07,SW,229,3.0,7.0,73,0.00,,,0.02,Wunderground v.1.13,2013-01-09 21:35:00,
2013-01-09 16:45:00,39.8,32.2,30.06,SW,215,4.0,11.0,74,0.00,,,0.02,Wunderground v.1.13,2013-01-09 21:45:00,
2013-01-09 16:50:00,39.8,32.2,30.06,SW,228,4.0,4.0,74,0.00,,,0.02,Wunderground v.1.13,2013-01-09 21:50:00,
2013-01-09 16:55:00,39.8,32.2,30.06,SW,217,5.0,5.0,74,0.00,,,0.02,Wunderground v.1.13,2013-01-09 21:55:00,
2013-01-09 17:05:00,39.7,32.4,30.06,SW,223,5.0,5.0,75,0.00,,,0.02,Wunderground v.1.13,2013-01-09 22:05:00,
2013-01-09 17:10:00,39.7,32.4,30.05,SSW,203,5.0,5.0,75,0.00,,,0.02,Wunderground v.1.13,2013-01-09 22:10:00,
2013-01-09 17:15:00,39.6,32.7,30.05,SW,225,4.0,4.0,76,0.00,,,0.02,Wunderground v.1.13,2013-01-09 22:15:00,
2013-01-09 17:24:00,39.5,32.6,30.04,SW,230,3.0,11.0,76,0.00,,,0.02,Wunderground v.1.13,2013-01-09 22:24:00,
2013-01-09 17:30:00,39.6,33.0,30.04,East,83,5.0,12.0,77,0.00,,,0.02,Wunderground v.1.13,2013-01-09 22:30:00,
2013-01-09 17:35:00,39.6,33.0,30.04,SW,229,7.0,12.0,77,0.00,,,0.02,Wunderground v.1.13,2013-01-09 22:35:00,
2013-01-09 17:40:00,39.6,33.0,30.04,SW,225,6.0,6.0,77,0.00,,,0.02,Wunderground v.1.13,2013-01-09 22:40:00,
2013-01-09 17:50:00,39.6,33.0,30.04,SW,225,3.0,3.0,77,0.00,,,0.02,Wunderground v.1.13,2013-01-09 22:50:00,
2013-01-09 17:55:00,39.5,33.2,30.04,SW,221,4.0,13.0,78,0.00,,,0.02,Wunderground v.1.13,2013-01-09 22:55:00,
2013-01-09 18:00:00,39.5,33.2,30.03,West,261,4.0,4.0,78,0.00,,,0.02,Wunderground v.1.13,2013-01-09 23:00:00,
2013-01-09 18:05:00,39.4,33.4,30.03,SE,144,4.0,4.0,79,0.00,,,0.02,Wunderground v.1.13,2013-01-09 23:05:00,
2013-01-09 18:15:00,39.4,33.4,30.04,SW,215,4.0,4.0,79,0.00,,,0.02,Wunderground v.1.13,2013-01-09 23:15:00,
2013-01-09 18:20:00,39.3,33.6,30.04,SSW,206,4.0,4.0,80,0.00,,,0.02,Wunderground v.1.13,2013-01-09 23:20:00,
2013-01-09 18:30:00,39.4,33.7,30.04,SSW,199,5.0,5.0,80,0.00,,,0.02,Wunderground v.1.13,2013-01-09 23:30:00,
2013-01-09 18:35:00,39.4,33.7,30.04,SW,217,4.0,4.0,80,0.00,,,0.02,Wunderground v.1.13,2013-01-09 23:35:00,
2013-01-09 18:40:00,39.4,33.7,30.03,SSW,205,4.0,4.0,80,0.00,,,0.02,Wunderground v.1.13,2013-01-09 23:40:00,
2013-01-09 18:45:00,39.4,33.7,30.04,West,271,3.0,5.0,80,0.00,,,0.02,Wunderground v.1.13,2013-01-09 23:45:00,
2013-01-09 18:55:00,39.5,34.2,30.04,WSW,240,4.0,4.0,81,0.00,,,0.02,Wunderground v.1.13,2013-01-09 23:55:00,
2013-01-09 19:00:00,39.5,34.2,30.04,SW,227,3.0,3.0,81,0.00,,,0.02,Wunderground v.1.13,2013-01-10 00:00:00,
2013-01-09 19:05:00,39.5,34.2,30.05,SSW,202,3.0,3.0,81,0.00,,,0.02,Wunderground v.1.13,2013-01-10 00:05:00,
2013-01-09 19:15:00,39.6,34.2,30.04,WSW,240,3.0,3.0,81,0.00,,,0.02,Wunderground v.1.13,2013-01-10 00:15:00,
2013-01-09 19:20:00,39.6,34.2,30.04,West,264,2.0,2.0,81,0.00,,,0.02,Wunderground v.1.13,2013-01-10 00:20:00,
2013-01-09 19:25:00,39.6,34.2,30.05,WSW,246,3.0,3.0,81,0.00,,,0.02,Wunderground v.1.13,2013-01-10 00:25:00,
2013-01-09 19:30:00,39.9,34.9,30.05,NNE,20,4.0,4.0,82,0.00,,,0.02,Wunderground v.1.13,2013-01-10 00:30:00,
2013-01-09 19:40:00,40.7,35.3,30.05,SW,226,6.0,9.0,81,0.00,,,0.02,Wunderground v.1.13,2013-01-10 00:40:00,
2013-01-09 19:45:00,41.1,36.6,30.05,South,184,6.0,18.0,84,0.00,,,0.02,Wunderground v.1.13,2013-01-10 00:45:00,
2013-01-09 19:50:00,41.4,35.4,30.05,SSW,203,8.0,8.0,79,0.00,,,0.02,Wunderground v.1.13,2013-01-10 00:50:00,
2013-01-09 20:00:00,41.6,35.2,30.04,West,262,7.0,11.0,78,0.00,,,0.02,Wunderground v.1.13,2013-01-10 01:00:00,
2013-01-09 20:05:00,41.6,35.2,30.04,SW,232,8.0,8.0,78,0.00,,,0.02,Wunderground v.1.13,2013-01-10 01:05:00,
2013-01-09 20:10:00,41.5,35.2,30.04,SW,230,8.0,8.0,78,0.00,,,0.02,Wunderground v.1.13,2013-01-10 01:10:00,
2013-01-09 20:20:00,41.4,35.1,30.04,SW,217,6.0,6.0,78,0.00,,,0.02,Wunderground v.1.13,2013-01-10 01:20:00,
2013-01-09 20:25:00,41.3,35.0,30.04,West,263,7.0,7.0,78,0.00,,,0.02,Wunderground v.1.13,2013-01-10 01:25:00,
2013-01-09 20:30:00,41.3,35.0,30.04,South,179,7.0,13.0,78,0.00,,,0.02,Wunderground v.1.13,2013-01-10 01:30:00,
2013-01-09 20:35:00,41.3,35.0,30.04,SSW,213,6.0,6.0,78,0.00,,,0.02,Wunderground v.1.13,2013-01-10 01:35:00,
2013-01-09 20:45:00,41.1,34.8,30.04,WSW,240,7.0,18.0,78,0.00,,,0.02,Wunderground v.1.13,2013-01-10 01:45:00,
2013-01-09 20:50:00,41.1,34.8,30.04,WSW,242,6.0,6.0,78,0.00,,,0.02,Wunderground v.1.13,2013-01-10 01:50:00,
2013-01-09 20:55:00,41.1,34.8,30.04,WSW,240,7.0,7.0,78,0.00,,,0.02,Wunderground v.1.13,2013-01-10 01:55:00,
2013-01-09 21:05:00,41.0,34.7,30.04,SW,214,4.0,9.0,78,0.00,,,0.02,Wunderground v.1.13,2013-01-10 02:05:00,
2013-01-09 21:10:00,40.9,34.6,30.05,WNW,286,5.0,5.0,78,0.00,,,0.02,Wunderground v.1.13,2013-01-10 02:10:00,
2013-01-09 21:15:00,40.8,34.5,30.05,SW,223,6.0,6.0,78,0.00,,,0.02,Wunderground v.1.13,2013-01-10 02:15:00,
2013-01-09 21:25:00,40.7,34.4,30.04,SW,226,6.0,11.0,78,0.00,,,0.02,Wunderground v.1.13,2013-01-10 02:25:00,
2013-01-09 21:30:00,40.7,34.4,30.04,WSW,242,6.0,6.0,78,0.00,,,0.02,Wunderground v.1.13,2013-01-10 02:30:00,
2013-01-09 21:35:00,40.7,34.0,30.04,WSW,257,4.0,4.0,77,0.00,,,0.02,Wunderground v.1.13,2013-01-10 02:35:00,
2013-01-09 21:40:00,40.6,34.0,30.05,SW,227,3.0,3.0,77,0.00,,,0.02,Wunderground v.1.13,2013-01-10 02:40:00,
2013-01-09 21:50:00,40.4,33.8,30.05,SSW,211,3.0,12.0,77,0.00,,,0.02,Wunderground v.1.13,2013-01-10 02:50:00,
2013-01-09 21:55:00,40.4,33.8,30.04,West,270,5.0,5.0,77,0.00,,,0.02,Wunderground v.1.13,2013-01-10 02:55:00,
2013-01-09 22:00:00,40.5,33.9,30.03,SSW,194,6.0,6.0,77,0.00,,,0.02,Wunderground v.1.13,2013-01-10 03:00:00,
2013-01-09 22:10:00,40.9,33.6,30.04,WSW,244,8.0,17.0,75,0.00,,,0.02,Wunderground v.1.13,2013-01-10 03:10:00,
2013-01-09 22:15:00,41.1,33.4,30.04,SW,226,7.0,7.0,74,0.00,,,0.02,Wunderground v.1.13,2013-01-10 03:15:00,
2013-01-09 22:20:00,41.2,33.5,30.04,SW,226,6.0,6.0,74,0.00,,,0.02,Wunderground v.1.13,2013-01-10 03:20:00,
2013-01-09 22:30:00,41.0,33.3,30.06,SW,217,3.0,5.0,74,0.00,,,0.02,Wunderground v.1.13,2013-01-10 03:30:00,
2013-01-09 22:35:00,41.0,33.3,30.06,WSW,249,3.0,3.0,74,0.00,,,0.02,Wunderground v.1.13,2013-01-10 03:35:00,
2013-01-09 22:40:00,40.9,32.9,30.07,West,260,4.0,4.0,73,0.00,,,0.02,Wunderground v.1.13,2013-01-10 03:40:00,
2013-01-09 22:50:00,40.8,31.8,30.07,North,355,4.0,6.0,70,0.00,,,0.02,Wunderground v.1.13,2013-01-10 03:50:00,
2013-01-09 22:55:00,40.9,31.5,30.06,NNW,345,4.0,5.0,69,0.00,,,0.02,Wunderground v.1.13,2013-01-10 03:55:00,
2013-01-09 23:00:00,40.9,31.1,30.06,SW,223,3.0,3.0,68,0.00,,,0.02,Wunderground v.1.13,2013-01-10 04:00:00,
2013-01-09 23:05:00,40.9,30.4,30.06,SW,218,3.0,3.0,66,0.00,,,0.02,Wunderground v.1.13,2013-01-10 04:05:00,
2013-01-09 23:15:00,40.9,29.7,30.06,NNW,348,4.0,6.0,64,0.00,,,0.02,Wunderground v.1.13,2013-01-10 04:15:00,
2013-01-09 23:20:00,40.9,29.3,30.06,West,264,4.0,13.0,63,0.00,,,0.02,Wunderground v.1.13,2013-01-10 04:20:00,
2013-01-09 23:25:00,40.9,28.9,30.06,WSW,254,4.0,4.0,62,0.00,,,0.02,Wunderground v.1.13,2013-01-10 04:25:00,
2013-01-09 23:35:00,41.0,28.6,30.07,NW,314,3.0,4.0,61,0.00,,,0.02,Wunderground v.1.13,2013-01-10 04:35:00,
2013-01-09 23:40:00,41.0,28.6,30.07,West,279,3.0,3.0,61,0.00,,,0.02,Wunderground v.1.13,2013-01-10 04:40:00,
2013-01-09 23:45:00,40.9,28.5,30.07,South,177,3.0,3.0,61,0.00,,,0.02,Wunderground v.1.13,2013-01-10 04:45:00,
2013-01-09 23:55:00,41.0,27.8,30.07,NW,326,3.0,3.0,59,0.00,,,0.02,Wunderground v.1.13,2013-01-10 04:55:00,